Home > Weather > Wedel > Past weeks

Flag for Germany Weather for the Past 2 Weeks in Wedel, Schleswig-Holstein, Germany

Now
55 °F

Passing clouds.


Feels Like: 54 °F
Forecast: 38 / 64 °F
Wind: 6 mph from Northeast

Location: Hamburg-Fuhlsbuettel

Current Time: May 1, 2016 at 8:12:39 PM

Latest Report: May 1, 2016 at 7:20 PM


Visibility: N/A

Pressure: 30.30 "Hg

Humidity: 63%

Dew Point: 43 °F

Location of WedelLocation

Historic Weather in Wedel — Graph

°F

Wedel Temperature Yesterday

Maximum temperature yesterday: 48 °F (at 9:50 AM)
Minimum temperature yesterday: 39 °F (at 11:20 PM)
Average temperature yesterday: 44 °F

High & Low Weather Summary for the Past Weeks

 TemperatureHumidityPressure
High57 °F (May 1, 2:50 PM)100% (Apr 21, 4:20 AM)30.42 "Hg (Apr 21, 4:20 AM)
Low32 °F (Apr 21, 4:20 AM)41% (Apr 29, 2:50 PM)29.39 "Hg (Apr 26, 3:20 AM)
Average43 °F79%29.93 "Hg
* Reported Apr 16 6:20 PM — May 1 6:50 PM, Wedel, Weather by CustomWeather, © 2016

Note: Actual official high and low records may vary slightly from our data, if they occured in-between our weather recording intervals... More about our weather records

Advertising

Wedel Weather History for the Previous 24 Hours

Scroll right to see more
 ConditionsComfort  
Time TempWeatherWind HumidityBarometerVisibility
6:50 PM
Sun, May 1
57 °FPassing clouds.6 mph55%30.30 "HgN/A
6:20 PM57 °FPassing clouds.8 mph59%30.30 "HgN/A
5:50 PM55 °FPassing clouds.7 mph63%30.30 "HgN/A
5:20 PM57 °FScattered clouds.9 mph63%30.30 "HgN/A
4:50 PM57 °FScattered clouds.8 mph59%30.30 "HgN/A
4:20 PM57 °FScattered clouds.8 mph59%30.30 "HgN/A
3:50 PM57 °FScattered clouds.8 mph59%30.30 "HgN/A
3:20 PM57 °FScattered clouds.8 mph59%30.30 "HgN/A
2:50 PM57 °FPassing clouds.7 mph63%30.30 "HgN/A
2:20 PM55 °FPassing clouds.8 mph63%30.30 "HgN/A
1:50 PM55 °FPassing clouds.9 mph63%30.30 "HgN/A
1:20 PM55 °FPassing clouds.10 mph63%30.30 "HgN/A
12:50 PM54 °FPassing clouds.8 mph67%30.30 "HgN/A
12:20 PM52 °FPassing clouds.8 mph72%30.30 "HgN/A
11:50 AM50 °FScattered clouds.8 mph76%30.30 "HgN/A
11:20 AM48 °FPartly sunny.8 mph76%30.30 "HgN/A
10:50 AM48 °FPartly sunny.9 mph76%30.30 "HgN/A
10:20 AM48 °FPartly sunny.8 mph76%30.30 "HgN/A
9:50 AM46 °FPartly sunny.7 mph87%30.30 "HgN/A
8:50 AM41 °FSunny.6 mph93%30.30 "Hg10 mi
8:20 AM41 °FPassing clouds.3 mph93%30.30 "HgN/A
7:50 AM39 °FPassing clouds.5 mph93%30.30 "HgN/A
7:20 AM39 °FPassing clouds.5 mph93%30.27 "HgN/A
6:20 AM37 °FClear.8 mph93%30.27 "Hg10 mi
5:50 AM37 °FClear.8 mph93%30.24 "Hg10 mi
5:20 AM37 °FClear.7 mph93%30.24 "Hg10 mi
4:20 AM37 °FClear.7 mph100%30.24 "Hg10 mi
3:50 AM37 °FClear.7 mph100%30.24 "Hg10 mi
3:20 AM39 °FClear.7 mph93%30.24 "Hg10 mi
2:50 AM39 °FClear.8 mph100%30.21 "Hg10 mi
2:20 AM36 °FChilly.3 mph100%30.21 "Hg5 mi
1:50 AM37 °FSnow. Overcast.6 mph100%30.21 "Hg5 mi
1:20 AM36 °FLight fog.5 mph100%30.21 "Hg5 mi
12:50 AM37 °FLight fog.5 mph93%30.21 "Hg5 mi
12:20 AM36 °FChilly.5 mph100%30.21 "Hg5 mi
11:50 PM
Sat, Apr 30
39 °FChilly.2 mph93%30.21 "HgN/A
11:20 PM39 °FChilly.2 mph100%30.21 "HgN/A
10:50 PM41 °FQuite cool.5 mph100%30.21 "HgN/A
10:20 PM41 °FFog.3 mph100%30.18 "HgN/A
9:50 PM43 °FFog.2 mph93%30.18 "HgN/A
9:20 PM43 °FFog.2 mph100%30.18 "HgN/A
8:50 PM45 °FSunny.2 mph87%30.18 "Hg10 mi
8:20 PM45 °FPartly sunny.3 mph93%30.15 "HgN/A
Weather by CustomWeather, © 2016

See weather overviewHow to use our weather pages